GFSFLT1_850_rhum_204.txt.gz
RH
10 10 10 9 8 7 7 6 6 8 11 17 24 31 35 36 42 71 98 98 95 90 70 77 84 81 83 75 73 78 83 72 51
11 11 10 9 8 8 7 6 6 9 15 26 35 37 40 44 45 57 74 85 98 98 99 99 73 65 70 73 75 73 74 81 73
12 11 10 10 10 9 9 8 6 10 20 36 42 42 46 48 45 47 68 98 98 99 98 91 96 85 46 46 70 76 77 86 85
12 12 11 11 12 11 11 10 9 10 18 33 42 44 49 48 44 48 95 96 97 96 80 48 92 98 78 60 48 47 62 77 81
13 13 13 13 13 13 13 12 12 11 15 38 44 47 48 47 38 69 96 98 94 80 44 52 100 99 89 86 81 77 68 51 55
15 14 15 14 15 15 14 13 15 15 18 31 41 44 46 47 47 86 96 92 87 36 37 49 93 90 92 99 97 92 84 82 82
16 16 16 16 17 16 15 14 17 17 21 29 35 42 47 48 58 55 62 54 48 35 30 96 90 80 87 75 77 82 96 90 82
17 17 17 19 19 18 18 16 18 20 22 28 31 42 50 54 60 53 47 43 50 41 36 32 28 26 28 53 59 64 65 75 79
17 18 18 19 19 18 17 17 17 20 23 29 40 40 49 55 54 45 40 42 39 37 34 31 30 34 64 80 66 68 82 89 66
18 18 19 20 19 17 16 17 17 18 22 24 35 40 45 48 44 40 39 42 37 37 38 38 36 34 34 60 78 64 73 86 91
19 19 20 21 19 16 15 15 15 15 17 21 26 35 41 42 39 40 33 42 40 40 40 37 36 32 37 44 52 78 68 60 69
20 20 21 22 19 16 15 15 16 15 15 18 20 29 39 41 43 41 35 34 33 35 39 35 32 36 32 34 43 55 75 48 76
21 20 21 21 18 16 16 17 17 17 17 19 23 25 32 34 37 43 43 36 34 38 40 37 36 36 34 34 41 76 53 41 62
23 22 22 22 17 16 17 18 18 18 19 21 23 30 34 35 36 42 45 40 45 45 47 49 45 42 41 40 38 42 42 39 62
25 23 23 21 18 19 19 19 20 20 21 22 30 37 36 37 36 40 50 46 51 53 51 49 49 47 43 40 42 39 42 45 38
27 25 24 20 21 22 22 22 22 22 23 24 26 39 42 40 35 39 46 42 53 55 50 47 48 45 43 47 44 44 43 47 46
29 28 25 22 23 24 25 25 25 25 25 25 27 29 41 43 38 40 45 40 48 46 38 39 41 38 39 50 55 53 48 48 81
31 28 24 24 26 26 27 28 28 28 29 30 31 35 35 34 41 40 52 42 40 39 38 39 39 37 40 50 60 67 63 55 60
36 30 27 26 28 28 29 30 30 30 30 32 34 37 43 48 42 43 52 38 39 41 41 42 42 41 44 49 63 73 69 72 96
42 34 30 30 30 31 32 32 33 33 34 34 35 38 43 52 75 59 47 43 43 44 46 46 47 47 52 62 68 78 70 64 57

GFSFLT1_850_rhum_210.txt.gz
RH
9 9 9 8 7 7 7 8 9 10 15 26 31 35 40 56 61 89 93 97 97 95 78 67 77 89 78 79 76 70 82 72 67
10 10 9 8 7 7 7 8 10 12 21 26 35 36 33 49 64 81 94 98 96 92 98 94 97 74 47 70 69 80 82 78 76
10 10 9 9 9 8 8 9 12 19 28 32 39 36 34 50 71 92 89 98 94 95 92 94 94 90 87 77 53 53 52 54 49
10 10 10 11 10 10 10 10 14 21 31 37 39 37 39 62 89 96 78 92 94 97 97 92 98 98 98 97 96 95 93 87 78
11 12 12 12 12 12 11 11 15 25 32 38 38 39 49 82 97 91 68 87 98 99 99 97 98 96 97 94 95 97 96 94 83
13 13 13 13 13 12 12 11 13 20 33 40 39 40 50 77 88 76 54 93 96 97 94 93 93 94 95 95 97 96 98 85 92
14 14 14 14 14 12 12 12 13 20 28 35 37 35 41 47 52 43 54 94 94 90 93 95 96 97 96 95 89 96 99 97 90
15 15 16 15 15 13 14 16 16 20 27 29 33 35 37 34 32 35 38 89 95 97 95 87 92 97 97 99 98 80 97 98 98
17 16 17 16 15 15 15 18 19 21 25 30 33 35 32 36 32 40 41 46 89 96 91 81 74 77 96 97 96 98 88 84 79
17 18 18 18 15 16 14 15 18 20 25 30 39 40 39 38 32 34 42 40 43 46 49 49 55 72 79 89 96 89 96 79 74
18 19 19 18 15 15 14 14 14 18 22 27 38 43 45 48 46 38 40 37 39 38 36 37 35 42 69 86 95 93 91 72 57
20 20 20 18 15 15 14 14 15 16 20 24 33 41 43 48 52 49 41 44 41 41 41 39 36 33 32 60 90 84 72 74 60
20 20 20 18 15 15 15 16 17 18 21 24 29 38 40 41 46 47 44 47 46 43 41 40 37 34 32 32 37 77 74 73 83
21 21 22 19 16 17 17 17 18 19 22 28 33 37 40 37 42 47 44 46 49 46 40 35 36 35 33 34 37 52 64 68 91
23 23 23 19 17 18 18 18 19 20 24 30 42 46 46 43 44 46 49 48 54 45 36 36 35 36 35 35 37 39 41 54 82
25 24 24 20 20 20 21 20 21 23 27 30 44 47 48 42 45 52 50 48 42 42 38 38 39 40 41 41 40 39 43 45 93
29 28 26 22 22 22 23 24 24 24 26 27 39 57 58 54 51 53 50 54 49 42 40 42 42 43 44 43 46 48 52 51 88
33 30 26 23 24 24 24 24 25 25 26 26 26 31 36 41 45 54 54 52 57 43 41 43 43 44 43 44 44 48 56 56 60
36 32 27 24 25 26 26 26 26 26 26 28 27 28 29 31 36 45 48 45 41 41 38 32 32 30 31 36 41 48 50 48 48
40 36 30 27 27 28 29 29 30 30 28 30 31 33 35 37 40 40 37 33 27 16 8 9 9 7 9 18 20 18 19 23 30

GFSFLT1_850_rhum_213.txt.gz
RH
8 8 8 7 7 7 8 10 12 20 24 28 37 47 52 60 83 92 95 93 96 92 86 66 66 89 81 83 86 86 83 60 56
9 8 8 7 7 7 8 10 16 24 30 33 35 42 51 54 71 86 96 97 88 93 87 95 96 67 50 44 64 68 54 49 46
9 8 8 8 7 7 8 11 21 29 35 37 35 42 56 63 72 63 91 89 96 95 88 89 92 93 91 89 85 85 90 82 94
9 9 9 9 9 9 9 10 16 27 36 38 36 44 64 66 48 41 92 90 98 94 85 96 98 94 94 94 94 90 91 91 90
10 10 11 10 10 10 10 12 17 25 32 35 35 55 70 70 60 56 97 98 97 97 96 97 98 95 91 78 80 98 94 94 70
11 12 12 12 12 11 11 15 23 28 34 37 39 57 68 74 69 78 88 95 95 94 95 97 96 96 92 94 96 96 85 87 87
13 13 13 13 13 12 13 16 27 30 32 35 42 54 68 59 42 88 92 93 96 95 94 95 95 98 99 99 86 85 76 93 89
15 15 16 15 14 13 15 19 25 29 32 35 40 41 39 33 34 64 96 97 98 98 99 97 98 99 100 98 99 94 74 70 87
16 18 17 17 15 14 16 17 21 25 30 35 38 37 35 33 37 46 56 85 98 95 94 94 95 94 95 100 97 94 99 74 54
17 20 19 19 15 15 15 17 18 24 29 33 38 37 36 31 34 40 39 43 70 86 92 89 90 93 94 95 96 96 93 72 54
18 20 20 19 16 14 15 17 18 21 29 33 41 41 40 40 36 40 36 39 35 34 37 38 35 45 71 92 94 89 86 76 69
18 20 20 19 17 16 15 15 17 22 29 35 43 46 47 48 45 38 38 38 38 38 36 35 34 32 32 39 74 75 66 57 70
19 20 21 18 16 16 15 16 16 22 28 33 43 47 45 50 48 43 45 44 43 40 34 32 32 32 32 38 64 59 57 55 56
21 22 21 18 16 16 18 17 19 22 29 35 42 48 46 47 48 46 46 48 48 40 35 34 34 33 34 36 41 56 61 81 91
24 24 23 19 17 18 19 19 20 23 29 38 45 51 45 44 48 52 50 49 41 36 34 34 34 35 36 37 38 39 51 80 98
27 28 26 21 19 19 20 21 22 26 32 41 54 55 49 52 53 53 50 44 42 42 40 36 37 38 39 39 41 44 48 74 96
31 31 28 22 21 20 21 22 22 26 35 42 48 59 63 60 57 55 51 57 57 52 42 39 39 39 38 38 39 41 44 48 56
34 33 30 23 22 22 23 25 25 24 31 37 34 50 54 59 60 57 62 62 53 44 41 33 27 23 18 16 18 23 28 34 37
38 35 32 26 24 25 26 26 27 27 25 31 29 27 29 36 51 58 62 56 43 32 14 8 6 6 5 8 14 11 7 6 6
42 39 33 29 27 28 28 28 29 28 28 27 28 30 30 30 32 39 42 39 16 6 6 5 5 4 6 13 12 5 4 4 4

GFSFLT1_850_rhum_219.txt.gz
RH
9 8 8 8 7 8 8 9 10 12 13 19 48 70 83 80 81 87 91 92 94 87 57 68 75 79 81 79 67 65 82 74 48
8 8 8 7 7 8 9 10 11 22 26 35 45 72 79 80 81 93 87 89 91 92 88 88 85 83 82 89 92 84 98 96 80
9 8 7 7 8 9 9 11 15 26 34 34 48 66 77 78 82 92 97 92 98 92 92 88 93 95 94 88 92 93 70 88 84
9 8 7 8 9 10 12 15 24 30 33 39 47 75 70 74 80 85 94 91 97 88 80 78 86 88 90 86 79 86 93 85 82
9 8 8 9 11 11 16 23 31 33 36 42 54 62 72 86 82 97 94 96 94 95 98 99 92 60 73 60 42 77 88 73 87
11 14 11 11 13 18 24 25 34 33 38 49 80 77 69 75 88 95 96 96 98 98 98 99 88 96 92 83 75 71 86 87 76
70 15 12 14 18 26 38 34 38 42 40 59 82 75 68 78 89 95 96 96 98 98 99 93 98 100 95 96 89 59 47 50 66
48 16 16 20 29 69 41 42 69 78 89 85 78 71 70 81 95 97 96 99 97 96 98 93 86 94 95 97 86 70 46 36 37
60 32 44 31 64 70 68 69 73 74 79 75 71 66 72 82 88 98 98 96 96 94 93 97 98 98 97 92 79 75 82 74 69
68 68 63 60 67 66 68 69 73 71 70 65 63 68 73 79 95 71 55 46 67 89 83 77 74 96 95 86 61 56 62 62 68
53 49 54 54 53 60 63 67 70 72 70 65 64 67 73 78 91 68 42 36 36 38 35 32 39 92 100 96 80 72 81 82 75
38 43 44 36 52 57 59 63 69 74 74 69 69 69 73 78 82 73 39 40 36 32 31 30 33 78 97 96 96 88 83 88 95
27 38 37 29 34 50 62 67 72 78 78 75 75 78 74 77 78 80 75 67 45 33 32 32 31 33 60 96 99 98 99 98 91
25 27 27 22 20 26 37 54 68 77 81 82 84 79 78 82 81 75 47 45 42 33 33 33 32 32 34 35 47 74 75 92 88
28 33 26 26 23 32 51 57 70 75 83 82 85 85 80 78 77 62 49 44 37 37 40 38 33 33 33 33 32 32 33 34 40
26 30 28 26 25 22 26 49 66 78 82 84 92 88 81 78 71 70 56 44 42 44 43 36 34 30 20 16 13 12 14 18 21
26 27 28 26 24 23 25 25 57 71 66 77 75 82 78 76 74 71 61 50 52 47 40 31 18 9 6 6 5 6 6 6 6
30 28 28 28 24 22 24 23 29 50 59 70 61 66 60 77 77 68 60 66 61 50 36 16 7 6 5 5 6 7 5 4 3
34 31 31 29 24 22 24 26 32 36 46 66 59 55 60 68 83 82 67 65 64 49 24 13 7 6 5 6 6 4 3 3 3
36 35 34 33 27 24 25 27 34 37 37 44 44 36 35 55 60 78 84 78 62 43 16 13 10 6 6 6 4 3 3 3 4

GFSFLT1_850_rhum_225.txt.gz
RH
13 13 12 11 10 12 11 11 13 23 62 84 87 85 85 86 86 66 79 67 97 99 89 82 76 78 85 79 97 77 84 72 74
14 12 10 10 10 10 12 45 20 44 84 84 84 80 72 82 80 88 86 94 89 96 79 78 94 96 87 90 90 86 88 82 85
12 11 10 12 12 12 81 70 35 74 81 82 82 85 84 85 81 93 94 98 97 98 98 97 88 89 79 94 80 84 80 76 89
11 11 11 27 19 24 93 47 40 72 80 80 82 86 87 88 87 87 93 97 98 98 98 97 98 99 84 81 89 81 86 99 88
10 11 25 52 28 24 85 22 35 56 73 79 82 80 77 90 85 84 98 98 97 96 98 97 94 94 89 91 81 89 90 98 97
10 12 79 74 40 20 28 20 31 47 71 78 84 88 86 81 82 83 98 98 98 99 98 98 97 97 80 78 70 99 99 88 84
11 14 94 77 50 33 15 27 35 56 69 76 83 81 76 68 62 97 97 97 98 98 100 100 97 96 96 96 93 91 96 79 49
14 19 88 61 86 62 24 31 43 71 73 77 82 81 78 64 87 96 97 99 98 98 99 96 97 95 99 91 96 74 84 65 51
20 23 28 39 48 36 30 32 60 77 75 74 77 76 75 71 95 99 97 97 98 96 99 100 98 96 82 79 79 76 79 83 99
31 32 27 30 34 32 41 38 68 80 77 72 72 76 76 72 56 79 99 97 94 86 97 96 98 96 96 97 92 83 92 96 98
41 39 28 29 38 44 65 70 65 82 80 78 72 77 79 66 50 58 54 34 32 39 94 98 97 98 96 96 96 99 100 96 98
44 32 28 28 41 54 71 77 82 76 71 68 74 77 73 67 50 40 38 35 30 43 88 99 98 98 99 99 99 99 91 87 82
43 31 36 43 53 59 71 72 74 70 65 69 74 76 73 65 41 36 36 32 31 30 31 35 53 81 98 99 97 46 38 43 59
52 47 51 64 60 64 71 72 74 68 66 67 70 75 75 65 54 40 41 36 32 31 31 31 30 29 28 26 23 19 17 16 15
69 68 60 59 60 63 68 73 74 69 67 71 74 78 79 77 70 54 45 40 34 33 36 34 30 26 22 15 10 7 7 7 6
66 57 53 52 54 59 68 72 76 72 73 76 78 82 83 82 77 65 51 43 37 38 38 34 28 18 9 7 6 6 6 5 5
52 47 47 49 54 61 65 69 78 77 77 76 78 81 80 80 75 64 55 48 43 46 43 36 25 10 7 6 6 6 4 4 4
47 42 39 40 46 50 55 62 72 82 83 76 62 82 75 80 79 72 64 57 49 51 49 38 22 9 7 6 6 4 4 4 4
53 45 40 35 34 38 41 50 61 66 79 82 52 45 39 72 78 76 70 63 59 55 51 42 21 10 7 6 5 4 4 4 4
56 48 42 36 30 29 34 48 60 53 48 56 57 49 48 44 48 72 71 72 68 63 54 44 18 10 8 7 6 5 5 4 4